[[{"header":{"parameterUnit":"m.s-1","parameterCategory":1,"la1":30.2991,"la2":30.254,"lo1":-89.0895,"lo2":-89.0444,"dy":0.0017,"dx":0.0017,"nx":28,"ny":28,"refTime":"2025-03-22T09:00:00:Z","depth":0,"parameterNumber":2,"parameterNumberName":"U-component_of_WINDS"},"data":[0,0,0,0,0,0,0,0,0,0,0,0,0,0,0,0,0,0,0,0,0,0,0,0,0,0,0,0,0,0,0,0,0,0,0,0,0,0,0,0,0,0,0,0,0,0,0,0,0,0,0,0,0,0,0,0,0,0,0.7569,0.7571,0,0.7693,0.7695,0.7696,0.7749,0.7749,0.7749,0.7749,0.7881,0.7885,0.7889,0,0,0,0,0,0,0,0,0,0,0,0,0,0.7385,0.7388,0.7569,0.7571,0.7572,0.7693,0.7695,0.7696,0.7749,0.7749,0.7749,0.7748,0.788,0.7884,0.7889,0,0,0,0,0,0,0,0,0,0,0,0,0,0.7483,0.7389,0.7569,0.7613,0.7618,0.7693,0.7695,0.7697,0.7749,0.7749,0.7749,0.7748,0.7879,0.7884,0.789,0.7931,0,0,0.7907,0.7909,0,0,0,0,0,0,0,0,0.7477,0.7489,0.7605,0.761,0.7616,0.7705,0.7678,0.7776,0.7749,0.77,0.7748,0.7748,0.7823,0.7834,0.7858,0.7937,0.7943,0.7907,0.7911,0.7913,0.7915,0,0,0,0,0,0,0,0.747,0.7484,0.7619,0.7607,0.7614,0.7629,0.7642,0.7697,0.7762,0.7704,0.7708,0.7722,0.7826,0.7852,0.7861,0.7945,0.7907,0.7912,0.7916,0.7918,0.8067,0.8067,0,0,0,0,0,0,0.7455,0.7478,0.7615,0.7622,0.7544,0.7632,0.7648,0.7677,0.7762,0.7774,0.7722,0.7724,0.7843,0.7855,0.7866,0.7921,0.7913,0.7918,0.7921,0.8066,0.8067,0.8068,0,0,0,0,0,0,0.7451,0.7467,0.761,0.7551,0.7571,0.7636,0.7669,0.768,0.7705,0.7775,0.7788,0.7736,0.7843,0.7858,0.7915,0.7927,0.7921,0.7926,0.8066,0.8067,0.8067,0.8031,0,0,0,0,0,0,0.7446,0.7465,0.748,0.7551,0.7574,0.7654,0.7669,0.7682,0.7714,0.7718,0.7791,0.7803,0.7844,0.7906,0.792,0.7934,0.793,0.8065,0.8066,0.8067,0.8032,0.8031,0.803,0,0,0,0,0,0.7439,0.7466,0.748,0.7496,0.7593,0.7654,0.7667,0.7711,0.7715,0.7732,0.7777,0.7801,0.7923,0.7911,0.7928,0.7944,0.8064,0.8066,0.8067,0.8032,0.8031,0.803,0,0,0,0,0,0,0.7396,0.7476,0.7493,0.7543,0.7591,0.7663,0.7685,0.7709,0.7758,0.776,0.7815,0.7831,0.7883,0.7919,0.7905,0.7989,0.7996,0.8,0.7964,0.7963,0.7962,0.7953,0.7935,0,0,0,0,0,0.7392,0.7433,0.7501,0.7539,0.7562,0.7619,0.7648,0.7678,0.7731,0.7752,0.7801,0.7853,0.7903,0.7935,0.7985,0.8037,0.8055,0.8057,0.8056,0.8055,0.8059,0.8091,0.8093,0.8072,0.8072,0.8072,0,0,0.7385,0.7433,0.7456,0.7532,0.7573,0.7616,0.7636,0.7681,0.7715,0.7759,0.7815,0.7853,0.7915,0.7969,0.7996,0.8001,0.8068,0.8056,0.8055,0.806,0.8092,0.8094,0.8096,0.8073,0.8073,0.8073,0,0,0.7394,0.7434,0.7471,0.7511,0.7572,0.761,0.7618,0.7687,0.7713,0.777,0.7805,0.7847,0.7931,0.7974,0.8007,0.8034,0.8059,0.8049,0.8045,0.8076,0.8077,0.8079,0.809,0.8093,0.8052,0.8052,0.8052,0,0.7378,0.7442,0.7487,0.753,0.7563,0.7604,0.7643,0.768,0.7755,0.7778,0.7782,0.789,0.7935,0.8001,0.8007,0.8032,0.8046,0.8041,0.8073,0.8075,0.8078,0.8089,0.8092,0.805,0.8051,0.8051,0.8051,0,0.742,0.7465,0.7488,0.7557,0.7593,0.7634,0.7686,0.7718,0.7745,0.7783,0.7841,0.7896,0.7958,0.7976,0.8004,0.8047,0.8048,0.8062,0.807,0.8077,0.8089,0.8093,0.8048,0.8049,0.8049,0.805,0,0,0.7406,0.7499,0.7507,0.754,0.7611,0.7647,0.7691,0.775,0.7777,0.7827,0.7867,0.7938,0.7951,0.7988,0.8021,0.8048,0.8067,0.8059,0.8061,0.806,0.812,0.811,0.8114,0.8084,0.8085,0.8086,0.8116,0,0.7425,0.7503,0.7545,0.7606,0.7649,0.7689,0.7727,0.7776,0.7813,0.7857,0.7899,0.7948,0.7961,0.7984,0.8012,0.8059,0.808,0.8057,0.8123,0.8125,0.8107,0.812,0.8109,0.8135,0.812,0.8121,0.8122,0,0.7458,0.7507,0.7571,0.7638,0.7658,0.7691,0.775,0.779,0.7848,0.7873,0.7915,0.7947,0.7997,0.8,0.8071,0.8054,0.8084,0.8111,0.8113,0.8122,0.8124,0.8131,0.8144,0.8148,0.8129,0.8128,0.8128,0,0.7442,0.7524,0.7574,0.76,0.768,0.7702,0.7737,0.7793,0.7827,0.7879,0.7901,0.7959,0.7991,0.8036,0.8084,0.8081,0.8151,0.8157,0.8175,0.8174,0.8188,0.8187,0.8208,0.8205,0.8205,0.8205,0.8205,0,0.746,0.7499,0.7568,0.7598,0.7643,0.7692,0.7736,0.7774,0.7824,0.7865,0.7903,0.7941,0.8002,0.8047,0.8085,0.8139,0.8153,0.8177,0.8187,0.8174,0.8171,0.8195,0.8195,0.8206,0.8206,0.8206,0.8206,0,0.745,0.7498,0.7555,0.7625,0.7644,0.7674,0.7735,0.7768,0.7807,0.7857,0.7872,0.7935,0.7991,0.8043,0.8118,0.8144,0.8198,0.821,0.8178,0.8184,0.8199,0.8197,0.8237,0.8246,0.8236,0.8236,0.8236,0,0.7459,0.7489,0.7562,0.7591,0.7624,0.7671,0.7705,0.7755,0.779,0.7858,0.7883,0.7941,0.799,0.8079,0.8132,0.819,0.8205,0.8215,0.8214,0.82,0.8207,0.8205,0.8209,0.8214,0.8214,0.8214,0.8214,0,0.7469,0.7492,0.7538,0.7594,0.7633,0.768,0.7728,0.775,0.781,0.7847,0.7904,0.7942,0.8018,0.8077,0.8141,0.8179,0.8207,0.8213,0.8221,0.8209,0.8189,0.8201,0.8178,0.8212,0.8213,0.8213,0.8213,0.8213,0.747,0.7499,0.7556,0.7607,0.7648,0.7692,0.7727,0.777,0.7818,0.7883,0.791,0.7968,0.8027,0.8116,0.8154,0.8201,0.8208,0.8218,0.8221,0.8223,0.8221,0.818,0.8213,0.8213,0.8213,0.8214,0.8214,0,0.7484,0.7522,0.7569,0.7634,0.7675,0.7696,0.7751,0.7784,0.7834,0.7886,0.7933,0.8,0.8057,0.8115,0.8176,0.8203,0.8218,0.8218,0.8217,0.8226,0.8211,0.8199,0.8205,0.8205,0.8205,0.8205,0.8205,0.8205,0.7496,0.7547,0.7576,0.7649,0.7688,0.7744,0.7774,0.7816,0.7857,0.7929,0.7976,0.8013,0.8068,0.8133,0.8187,0.8203,0.8224,0.8221,0.824,0.8226,0.8226,0.8227,0.8216,0.8225,0.8225,0.8251,0.8251,0.8251]},{"header":{"parameterUnit":"m.s-1","parameterCategory":1,"la1":30.2991,"la2":30.254,"lo1":-89.0895,"lo2":-89.0444,"dy":0.0017,"dx":0.0017,"nx":28,"ny":28,"refTime":"2025-03-22T09:00:00:Z","depth":0,"parameterNumber":3,"parameterNumberName":"V-component_of_WINDS"},"data":[0,0,0,0,0,0,0,0,0,0,0,0,0,0,0,0,0,0,0,0,0,0,0,0,0,0,0,0,0,0,0,0,0,0,0,0,0,0,0,0,0,0,0,0,0,0,0,0,0,0,0,0,0,0,0,0,0,0,1.8568,1.8568,0,1.855,1.855,1.855,1.8538,1.8538,1.8537,1.8537,1.8518,1.8518,1.8517,0,0,0,0,0,0,0,0,0,0,0,0,0,1.859,1.859,1.8568,1.8568,1.8568,1.8551,1.855,1.855,1.8538,1.8538,1.8537,1.8537,1.8518,1.8518,1.8517,0,0,0,0,0,0,0,0,0,0,0,0,0,1.8577,1.859,1.8568,1.856,1.8559,1.8551,1.855,1.855,1.8538,1.8538,1.8537,1.8537,1.8518,1.8518,1.8517,1.8516,0,0,1.8515,1.8515,0,0,0,0,0,0,0,0,1.8578,1.8577,1.8561,1.856,1.8559,1.8546,1.8551,1.8538,1.8538,1.8546,1.8537,1.8537,1.8527,1.8526,1.8523,1.8515,1.8514,1.8515,1.8515,1.8514,1.8514,0,0,0,0,0,0,0,1.8579,1.8577,1.8561,1.8561,1.856,1.8556,1.8554,1.8548,1.8537,1.8545,1.8544,1.8542,1.8527,1.8524,1.8522,1.8514,1.8515,1.8514,1.8514,1.8514,1.8503,1.8503,0,0,0,0,0,0,1.8582,1.8578,1.8562,1.8561,1.8569,1.8556,1.8554,1.855,1.8537,1.8535,1.8542,1.8542,1.8525,1.8523,1.8522,1.8519,1.8514,1.8514,1.8513,1.8503,1.8503,1.8503,0,0,0,0,0,0,1.8582,1.858,1.8563,1.8569,1.8567,1.8556,1.8552,1.855,1.8547,1.8535,1.8533,1.8541,1.8525,1.8523,1.8517,1.8518,1.8513,1.8513,1.8503,1.8503,1.8503,1.8514,0,0,0,0,0,0,1.8583,1.858,1.858,1.8569,1.8566,1.8559,1.8552,1.855,1.8546,1.8545,1.8534,1.8532,1.8524,1.8518,1.8517,1.8517,1.8512,1.8502,1.8503,1.8503,1.8513,1.8514,1.8515,0,0,0,0,0,1.8584,1.8584,1.858,1.8578,1.8566,1.8559,1.8557,1.8549,1.8546,1.8546,1.8538,1.8532,1.8518,1.8518,1.8516,1.8516,1.8502,1.8503,1.8503,1.8513,1.8514,1.8515,0,0,0,0,0,0,1.8595,1.8582,1.8578,1.8575,1.8568,1.8557,1.8556,1.8551,1.8544,1.8543,1.8533,1.8531,1.8526,1.8521,1.852,1.8514,1.8509,1.8509,1.8518,1.8519,1.852,1.8521,1.8512,0,0,0,0,0,1.8597,1.8593,1.8582,1.858,1.8577,1.8567,1.8564,1.8558,1.855,1.8547,1.8539,1.8532,1.8526,1.8522,1.8516,1.8512,1.8509,1.8511,1.8512,1.8513,1.8513,1.851,1.8511,1.8504,1.8504,1.8504,0,0,1.8602,1.8594,1.8592,1.8582,1.8576,1.8572,1.8565,1.856,1.8557,1.8547,1.8541,1.8535,1.8526,1.8521,1.8519,1.8516,1.8514,1.8513,1.8514,1.8513,1.851,1.8511,1.8511,1.8504,1.8504,1.8504,0,0,1.8607,1.8602,1.8599,1.8593,1.8584,1.8578,1.8577,1.8567,1.8562,1.8557,1.8549,1.8544,1.8534,1.8527,1.8523,1.8525,1.8519,1.8523,1.8528,1.8525,1.8526,1.8526,1.8527,1.8527,1.8523,1.8523,1.8523,0,1.8614,1.8607,1.8599,1.8595,1.859,1.8581,1.8578,1.8573,1.8562,1.8559,1.8557,1.8543,1.8536,1.853,1.853,1.8527,1.8526,1.8525,1.8527,1.8527,1.8527,1.8527,1.8528,1.8524,1.8524,1.8524,1.8524,0,1.8615,1.8611,1.861,1.86,1.8596,1.8592,1.8583,1.8579,1.8573,1.8567,1.8561,1.8552,1.8544,1.8542,1.8536,1.8534,1.8533,1.8529,1.8524,1.8528,1.8529,1.8529,1.8525,1.8525,1.8524,1.8524,0,0,1.8628,1.8613,1.8613,1.8608,1.8598,1.8594,1.8589,1.8581,1.8578,1.8571,1.8567,1.8558,1.8554,1.8549,1.8542,1.854,1.8542,1.8536,1.8535,1.8537,1.8539,1.8542,1.8542,1.8538,1.8538,1.8538,1.8539,0,1.8632,1.8624,1.8616,1.8612,1.8607,1.8598,1.8594,1.8587,1.858,1.8575,1.8567,1.8561,1.8556,1.8553,1.855,1.8542,1.8542,1.8542,1.8533,1.8533,1.8536,1.8542,1.8546,1.8548,1.8539,1.8539,1.8539,0,1.8635,1.8629,1.8624,1.8613,1.8611,1.8608,1.8599,1.8594,1.8586,1.8581,1.8575,1.8568,1.8562,1.8559,1.855,1.8551,1.8546,1.8542,1.8542,1.8541,1.8537,1.8541,1.8548,1.8548,1.8539,1.8539,1.8539,0,1.8645,1.8634,1.863,1.8626,1.8614,1.8612,1.8606,1.8597,1.8593,1.8585,1.8582,1.8574,1.857,1.8563,1.8554,1.8552,1.8546,1.8542,1.8542,1.8542,1.8541,1.8541,1.8547,1.8539,1.8539,1.8539,1.8539,0,1.865,1.8647,1.8634,1.8631,1.8627,1.8618,1.8614,1.8608,1.86,1.8595,1.8587,1.8582,1.857,1.8564,1.8557,1.8551,1.8549,1.8545,1.8543,1.8546,1.8546,1.8543,1.8542,1.8539,1.8539,1.8539,1.8539,0,1.8659,1.8651,1.8645,1.8634,1.8631,1.8628,1.8618,1.8615,1.8608,1.8602,1.86,1.8589,1.8581,1.8571,1.8561,1.8556,1.855,1.8548,1.8554,1.8552,1.8553,1.8553,1.8557,1.8557,1.8549,1.8549,1.8549,0,1.8663,1.8661,1.8649,1.8645,1.864,1.8635,1.863,1.862,1.8616,1.8605,1.8603,1.8595,1.8588,1.8576,1.8567,1.8558,1.8555,1.8557,1.8554,1.8556,1.8555,1.8555,1.8554,1.8558,1.8558,1.8558,1.8558,0,1.867,1.8666,1.866,1.8653,1.8648,1.8641,1.8634,1.8631,1.862,1.8615,1.8608,1.8602,1.8591,1.8583,1.8573,1.8567,1.856,1.8559,1.8559,1.8561,1.8565,1.8563,1.8556,1.8559,1.8559,1.8559,1.8559,1.8559,1.8677,1.8674,1.8666,1.8659,1.8653,1.8646,1.8643,1.8635,1.8629,1.8619,1.8614,1.8606,1.8597,1.8583,1.8577,1.857,1.8568,1.8567,1.8567,1.8567,1.8568,1.8566,1.8569,1.8569,1.8568,1.8568,1.8568,0,1.8684,1.8678,1.8672,1.8662,1.8657,1.8652,1.8644,1.8639,1.8633,1.8625,1.8618,1.8609,1.8601,1.8591,1.8582,1.8579,1.8575,1.8576,1.8577,1.8575,1.8571,1.8572,1.8579,1.8579,1.8579,1.8579,1.8579,1.8579,1.8686,1.8681,1.8676,1.8668,1.8662,1.8655,1.865,1.8644,1.8638,1.8628,1.8621,1.8615,1.8606,1.8596,1.8588,1.8585,1.8582,1.8584,1.858,1.8576,1.8575,1.8575,1.8576,1.8584,1.8584,1.8585,1.8585,1.8585]}]]